TimeCST,TemperatureF,Dew PointF,Humidity,Sea Level PressureIn,VisibilityMPH,Wind Direction,Wind SpeedMPH,Gust SpeedMPH,PrecipitationIn,Events,Conditions,WindDirDegrees,DateUTC
12:15 AM,28.4,26.6,93,29.96,3.0,NNE,10.4,-,N/A,,Overcast,30,2013-02-26 06:15:00
12:35 AM,26.6,26.6,100,29.95,3.0,NNE,11.5,-,N/A,,Overcast,20,2013-02-26 06:35:00
12:55 AM,26.6,26.6,100,29.95,3.0,NNE,11.5,-,N/A,,Overcast,30,2013-02-26 06:55:00
1:15 AM,26.6,26.6,100,29.95,3.0,NNE,11.5,-,N/A,,Overcast,20,2013-02-26 07:15:00
1:35 AM,26.6,26.6,100,29.95,3.0,NNE,10.4,-,N/A,,Overcast,20,2013-02-26 07:35:00
1:55 AM,26.6,26.6,100,29.94,3.0,NNE,11.5,-,N/A,,Overcast,20,2013-02-26 07:55:00
2:15 AM,26.6,26.6,100,29.94,2.5,North,9.2,-,N/A,,Overcast,360,2013-02-26 08:15:00
2:35 AM,24.8,24.8,100,29.93,2.5,North,9.2,15.0,N/A,,Overcast,10,2013-02-26 08:35:00
2:55 AM,23.0,23.0,100,29.92,2.5,North,9.2,-,N/A,,Overcast,10,2013-02-26 08:55:00
3:15 AM,24.8,24.8,100,29.90,2.0,NNE,12.7,-,N/A,,Overcast,20,2013-02-26 09:15:00
3:35 AM,-9999,-9999,N/A,29.89,1.0,North,12.7,-,N/A,,Light Drizzle,10,2013-02-26 09:35:00
3:55 AM,23.0,23.0,100,29.88,0.5,North,11.5,-,N/A,,Freezing Rain,10,2013-02-26 09:55:00
4:15 AM,23.0,23.0,100,29.88,0.2,NNE,15.0,-,N/A,,Freezing Rain,20,2013-02-26 10:15:00
4:35 AM,23.0,23.0,100,29.89,0.5,NNE,12.7,-,N/A,Fog,Light Freezing Fog,20,2013-02-26 10:35:00
4:55 AM,23.0,23.0,100,29.89,1.5,NNE,13.8,-,N/A,,Freezing Rain,20,2013-02-26 10:55:00
5:15 AM,21.2,21.2,100,29.90,2.5,NNE,11.5,-,N/A,,Overcast,20,2013-02-26 11:15:00
5:35 AM,21.2,19.4,93,29.89,3.0,NNE,12.7,-,N/A,Snow,Light Snow,20,2013-02-26 11:35:00
5:55 AM,19.4,19.4,100,29.89,3.0,NNE,10.4,-,N/A,,Overcast,20,2013-02-26 11:55:00
6:15 AM,19.4,19.4,100,29.88,3.0,North,13.8,-,N/A,,Overcast,10,2013-02-26 12:15:00
6:35 AM,19.4,17.6,93,29.88,3.0,North,10.4,16.1,N/A,,Overcast,10,2013-02-26 12:35:00
6:55 AM,17.6,17.6,100,29.87,2.0,NNE,12.7,-,N/A,Snow,Light Snow,20,2013-02-26 12:55:00
7:15 AM,17.6,17.6,100,29.87,2.0,North,12.7,-,N/A,Snow,Light Snow,10,2013-02-26 13:15:00
7:35 AM,17.6,17.6,100,29.87,2.0,NNE,12.7,-,N/A,,Overcast,20,2013-02-26 13:35:00
7:55 AM,17.6,17.6,100,29.88,2.5,NNE,11.5,-,N/A,,Overcast,20,2013-02-26 13:55:00
8:15 AM,17.6,17.6,100,29.88,2.5,NNE,11.5,-,N/A,,Overcast,20,2013-02-26 14:15:00
8:35 AM,17.6,17.6,100,29.88,2.0,North,10.4,-,N/A,,Mostly Cloudy,10,2013-02-26 14:35:00
8:55 AM,19.4,17.6,93,29.88,2.0,NNE,12.7,-,N/A,,Scattered Clouds,20,2013-02-26 14:55:00
9:15 AM,19.4,19.4,100,29.88,2.0,NNE,12.7,-,N/A,,Partly Cloudy,20,2013-02-26 15:15:00
9:35 AM,19.4,19.4,100,29.88,2.0,NNE,12.7,-,N/A,,Clear,20,2013-02-26 15:35:00
9:55 AM,21.2,21.2,100,29.87,2.0,NNE,15.0,-,N/A,,Clear,20,2013-02-26 15:55:00
10:15 AM,23.0,21.2,93,29.87,2.0,NNE,13.8,20.7,N/A,,Clear,20,2013-02-26 16:15:00
10:35 AM,23.0,23.0,100,29.87,2.5,NNE,13.8,-,N/A,,Clear,20,2013-02-26 16:35:00
10:55 AM,24.8,23.0,93,29.86,2.5,NNE,16.1,-,N/A,,Clear,20,2013-02-26 16:55:00
11:15 AM,26.6,23.0,86,29.86,-9999.0,NNE,15.0,-,N/A,,Unknown,20,2013-02-26 17:15:00
11:35 AM,26.6,23.0,86,29.86,3.0,NNE,13.8,-,N/A,,Clear,20,2013-02-26 17:35:00
11:55 AM,28.4,24.8,86,29.85,3.0,NNE,13.8,19.6,N/A,,Clear,20,2013-02-26 17:55:00
12:15 PM,28.4,24.8,86,29.84,4.0,NNE,13.8,21.9,N/A,,Clear,20,2013-02-26 18:15:00
12:35 PM,28.4,24.8,86,29.84,3.0,North,11.5,-,N/A,,Clear,360,2013-02-26 18:35:00
12:55 PM,28.4,26.6,93,29.83,3.0,North,15.0,-,N/A,,Partly Cloudy,360,2013-02-26 18:55:00
1:15 PM,28.4,24.8,86,29.83,2.5,North,13.8,-,N/A,,Mostly Cloudy,360,2013-02-26 19:15:00
1:35 PM,28.4,26.6,93,29.81,2.0,North,16.1,-,N/A,,Scattered Clouds,360,2013-02-26 19:35:00
1:55 PM,28.4,26.6,93,29.81,2.0,North,16.1,23.0,N/A,,Scattered Clouds,360,2013-02-26 19:55:00
2:15 PM,28.4,26.6,93,29.80,2.0,North,16.1,21.9,N/A,,Scattered Clouds,360,2013-02-26 20:15:00
2:35 PM,28.4,26.6,93,29.80,2.0,North,16.1,21.9,N/A,,Overcast,360,2013-02-26 20:35:00
2:55 PM,28.4,26.6,93,29.79,2.0,North,16.1,21.9,N/A,,Overcast,360,2013-02-26 20:55:00
3:15 PM,28.4,26.6,93,29.79,2.0,North,19.6,-,N/A,,Mostly Cloudy,360,2013-02-26 21:15:00
3:35 PM,28.4,26.6,93,29.80,2.5,North,16.1,26.5,N/A,,Mostly Cloudy,360,2013-02-26 21:35:00
3:55 PM,28.4,26.6,93,29.80,2.5,North,18.4,-,N/A,,Mostly Cloudy,360,2013-02-26 21:55:00
4:15 PM,28.4,26.6,93,29.80,3.0,North,12.7,25.3,N/A,,Overcast,10,2013-02-26 22:15:00
4:35 PM,28.4,26.6,93,29.80,3.0,North,16.1,24.2,N/A,,Overcast,10,2013-02-26 22:35:00
4:55 PM,28.4,26.6,93,29.81,3.0,North,15.0,20.7,N/A,,Mostly Cloudy,10,2013-02-26 22:55:00
5:15 PM,28.4,26.6,93,29.81,3.0,North,12.7,20.7,N/A,,Overcast,10,2013-02-26 23:15:00
5:35 PM,28.4,26.6,93,29.81,3.0,North,17.3,24.2,N/A,,Overcast,360,2013-02-26 23:35:00
5:55 PM,28.4,26.6,93,29.81,3.0,North,17.3,24.2,N/A,,Overcast,360,2013-02-26 23:55:00
6:15 PM,28.4,26.6,93,29.81,3.0,North,17.3,25.3,N/A,,Overcast,360,2013-02-27 00:15:00
6:35 PM,28.4,26.6,93,29.81,5.0,North,16.1,25.3,N/A,,Overcast,360,2013-02-27 00:35:00
6:55 PM,28.4,26.6,93,29.81,5.0,North,17.3,-,N/A,,Overcast,350,2013-02-27 00:55:00
7:15 PM,28.4,26.6,93,29.82,5.0,North,15.0,21.9,N/A,,Overcast,350,2013-02-27 01:15:00
7:35 PM,28.4,26.6,93,29.82,5.0,North,16.1,23.0,N/A,,Overcast,350,2013-02-27 01:35:00
7:55 PM,28.4,26.6,93,29.82,5.0,North,13.8,-,N/A,,Overcast,350,2013-02-27 01:55:00
8:15 PM,28.4,26.6,93,29.82,6.0,North,12.7,-,N/A,,Scattered Clouds,350,2013-02-27 02:15:00
8:35 PM,28.4,26.6,93,29.82,6.0,North,15.0,-,N/A,,Clear,350,2013-02-27 02:35:00
8:55 PM,28.4,26.6,93,29.83,6.0,North,10.4,-,N/A,,Clear,350,2013-02-27 02:55:00
9:15 PM,26.6,24.8,93,29.83,6.0,NNW,10.4,-,N/A,,Clear,340,2013-02-27 03:15:00
9:35 PM,26.6,24.8,93,29.83,6.0,North,10.4,-,N/A,,Clear,350,2013-02-27 03:35:00
9:55 PM,26.6,24.8,93,29.83,7.0,NNW,10.4,-,N/A,,Clear,340,2013-02-27 03:55:00
10:15 PM,26.6,24.8,93,29.83,7.0,NNW,10.4,-,N/A,,Clear,340,2013-02-27 04:15:00
10:55 PM,24.8,23.0,93,29.82,7.0,NNW,11.5,-,N/A,,Clear,340,2013-02-27 04:55:00
11:15 PM,24.8,23.0,93,29.82,7.0,NNW,12.7,18.4,N/A,,Clear,340,2013-02-27 05:15:00
11:35 PM,26.6,23.0,86,29.82,7.0,NNW,13.8,20.7,N/A,,Clear,340,2013-02-27 05:35:00
11:55 PM,24.8,23.0,93,29.82,7.0,NNW,12.7,19.6,N/A,,Clear,340,2013-02-27 05:55:00